Theta_e
298 297 298 297 297 297 298 297 298 301 302 302 301 300 301 300 298 296 299 301 300 301 304 306 311 313 314 315 317 318 320 322 321 321 322 321 322 323 323 324 325 327 328 331 333 334 335 336 337 339 341 342 343 344 344 345 345 345 346 345 345 344 345 344 344 344 345 346 345 346 347 347 346 344 344 345 346 348 348 348 348 348 348 348 347 346 346
296 295 296 297 297 296 297 297 297 299 300 301 301 301 303 302 302 300 302 302 302 305 306 307 309 316 320 322 322 319 319 320 323 321 322 323 324 324 326 328 329 330 332 333 335 335 336 337 338 339 340 341 342 343 343 344 344 345 345 344 344 344 343 343 344 344 344 346 345 346 347 346 344 344 345 346 346 343 343 343 343 346 346 344 344 343 342
294 295 296 296 295 296 298 297 299 297 297 298 298 300 304 307 303 301 300 301 301 305 306 315 324 325 322 322 321 319 319 323 323 322 323 324 326 328 330 330 331 332 333 335 336 336 336 337 338 339 339 339 340 341 342 342 342 342 343 342 342 342 341 341 342 344 344 343 342 342 343 344 344 343 342 342 342 341 341 340 341 342 342 339 339 340 339
292 296 296 295 296 297 297 300 303 302 300 302 301 305 303 303 302 300 300 299 299 304 314 323 324 321 319 319 320 321 323 324 324 324 325 327 330 331 330 331 331 333 334 334 335 336 336 337 338 338 337 338 339 338 339 339 340 341 340 339 338 338 339 340 342 341 340 339 338 338 338 338 339 339 339 338 338 338 337 337 339 341 337 337 337 337 337
289 292 294 294 293 294 298 298 301 305 304 303 302 305 305 307 302 300 298 299 304 306 321 321 323 322 321 321 322 323 325 325 325 326 328 330 332 331 331 332 333 332 333 334 335 336 337 337 337 337 339 338 337 337 338 339 339 338 338 339 339 340 340 339 338 337 336 336 336 336 336 336 337 336 336 335 335 335 334 336 338 335 334 334 335 335 335
290 294 295 295 293 289 289 298 303 308 307 305 303 303 303 304 303 301 302 303 306 318 320 318 320 322 322 323 325 328 327 326 327 329 331 333 333 333 333 333 332 333 335 336 337 337 337 338 338 339 340 338 338 339 339 338 338 338 338 337 336 336 335 335 335 335 335 335 334 334 333 333 333 333 333 332 333 333 335 334 333 332 333 333 333 333 334
293 294 293 292 288 288 300 303 304 306 308 308 305 309 308 311 311 311 311 311 313 317 319 320 324 326 328 330 330 330 331 330 330 331 333 333 333 332 332 332 334 334 336 336 337 337 338 338 338 337 336 337 337 338 339 338 338 336 335 334 333 333 333 333 333 333 333 333 333 331 331 331 331 330 330 330 330 332 332 332 332 332 332 332 332 334 334
293 290 288 286 288 298 303 303 307 313 311 310 307 306 309 312 312 312 311 312 314 318 321 325 327 329 331 333 334 334 334 334 333 333 333 333 333 332 333 333 334 335 336 336 337 338 340 337 338 338 337 337 336 335 336 335 335 334 333 332 331 331 331 331 331 331 330 330 330 329 329 329 328 328 328 328 328 329 333 332 331 331 331 331 331 330 330
292 290 287 291 296 300 305 306 310 310 308 308 303 300 302 310 313 312 313 315 318 321 323 326 328 331 331 330 330 336 336 336 337 337 335 335 334 334 335 336 335 337 337 338 339 339 338 337 336 334 334 335 334 333 332 331 331 330 330 330 330 331 330 330 331 329 329 329 329 328 327 326 326 326 326 326 327 330 329 328 328 328 329 329 330 329 330
292 289 291 290 292 291 296 301 309 313 313 312 310 306 304 309 312 315 317 317 319 320 323 326 328 328 324 321 323 332 337 338 337 338 337 337 336 336 335 335 336 337 337 338 338 336 335 334 333 333 333 333 331 329 328 327 327 327 327 327 328 329 328 328 328 329 328 327 326 326 325 324 325 325 326 326 327 330 328 326 326 327 328 328 329 330 329
296 290 287 287 287 291 297 304 309 312 314 313 309 303 299 307 311 314 318 318 320 322 324 325 325 320 315 317 324 334 338 338 338 337 337 337 336 335 336 336 335 335 335 335 336 335 333 331 331 332 331 329 328 327 327 325 325 325 325 326 326 326 326 327 327 327 327 327 326 325 324 324 325 325 325 327 328 327 326 326 326 327 329 328 328 329 329
296 291 290 292 292 300 308 306 309 312 313 311 304 294 294 304 312 316 319 319 321 322 324 323 317 316 316 320 328 337 339 339 339 337 335 335 335 336 337 336 335 335 336 334 332 332 331 331 332 330 329 328 329 325 325 324 323 323 324 324 324 325 325 325 326 327 326 327 327 326 324 325 325 326 328 326 325 325 326 326 326 326 327 327 326 327 328
299 298 292 294 298 306 310 312 314 313 311 308 295 291 299 308 313 318 321 321 322 320 319 317 316 317 320 331 336 339 339 338 337 338 337 336 336 335 335 336 338 332 331 331 330 330 330 330 329 327 326 325 325 325 323 322 323 323 323 324 324 324 324 325 325 325 325 325 325 325 325 325 326 326 325 324 325 325 325 326 326 326 326 326 324 322 321
295 293 296 294 295 302 308 310 312 312 307 297 295 301 307 312 315 320 323 321 318 316 316 317 320 329 336 338 338 337 336 336 335 336 336 336 335 336 338 338 334 330 329 329 329 329 329 329 327 326 325 324 323 322 322 322 322 323 323 323 324 324 323 324 325 324 324 326 326 325 326 326 324 324 324 325 325 325 326 325 325 324 322 320 318 317 318
297 293 293 294 290 303 312 315 309 311 304 300 301 309 315 316 318 320 321 321 318 322 323 329 334 336 336 335 335 335 335 335 334 334 334 332 331 330 330 330 333 330 327 326 325 326 326 326 325 325 325 324 324 323 321 322 323 324 324 323 323 324 324 323 324 324 324 324 324 324 325 325 324 323 324 325 325 325 323 322 320 318 317 317 316 315 316
296 293 292 291 296 305 312 310 305 307 309 311 310 314 314 317 318 319 319 318 320 327 331 333 333 333 331 332 334 334 334 334 334 333 332 331 331 331 332 331 330 329 324 324 323 323 324 325 324 324 325 324 325 323 321 323 325 326 323 323 323 323 324 322 322 323 323 324 323 323 324 324 323 323 323 323 321 320 319 317 316 315 315 316 315 314 314
300 297 297 300 305 306 309 313 311 310 313 316 313 315 316 317 317 317 321 319 323 331 333 332 331 330 332 332 334 333 332 332 332 331 331 331 330 330 330 329 329 326 323 321 321 321 321 322 323 323 324 324 324 322 321 326 323 323 323 323 324 321 320 320 322 321 322 321 322 323 323 322 321 320 320 320 317 317 317 316 315 314 314 315 313 313 313
307 307 308 309 311 311 312 315 317 318 320 319 318 317 318 318 320 321 323 322 328 331 332 330 329 330 331 332 332 332 332 331 331 331 331 330 330 329 328 326 326 323 321 321 321 320 320 321 322 325 322 323 322 321 323 325 322 321 323 322 323 321 320 320 320 320 320 322 323 323 321 321 320 319 318 318 317 315 315 314 314 313 312 313 312 311 311
303 300 307 309 311 311 312 314 315 318 319 318 319 318 319 319 321 321 324 326 330 330 330 329 328 329 331 331 331 331 331 330 330 330 329 329 328 326 325 327 326 321 321 320 321 321 320 320 321 321 321 322 323 324 323 321 321 321 325 324 322 320 317 319 320 320 320 323 322 321 320 319 319 318 318 316 315 315 314 313 312 312 311 311 310 310 309
304 306 308 308 310 311 313 313 314 317 317 320 322 320 320 320 323 324 324 329 330 331 328 329 329 329 331 330 330 330 330 330 330 329 328 327 327 327 327 326 324 321 320 320 320 320 320 319 320 321 321 321 320 320 321 321 320 323 323 323 319 316 317 318 320 322 323 324 321 318 318 318 317 317 317 316 314 313 313 312 312 311 311 311 310 309 309
304 306 307 308 310 310 310 312 314 316 317 321 322 321 322 324 325 326 327 329 330 329 328 329 329 329 329 331 331 330 329 329 328 327 327 327 326 325 324 324 324 319 320 321 320 321 319 319 319 320 320 320 320 320 320 319 319 322 322 321 319 316 316 318 318 323 323 322 319 317 316 316 316 316 315 315 315 315 316 315 314 312 312 311 312 311 311
301 304 307 310 307 304 307 310 315 316 321 322 322 322 323 325 325 326 326 326 328 329 329 330 330 329 329 330 330 329 329 328 327 327 326 326 325 324 324 323 321 322 323 321 320 320 318 318 319 319 318 319 319 320 320 319 318 321 321 320 319 317 319 319 320 322 322 320 318 318 317 316 316 317 315 308 308 314 315 316 311 307 307 312 312 312 311
300 306 308 309 309 308 309 311 314 318 320 322 322 321 322 324 326 327 327 326 326 327 328 331 330 329 329 328 329 328 328 327 327 327 325 324 323 322 322 319 319 319 320 322 321 320 318 320 320 320 318 317 317 318 318 318 318 317 317 320 319 317 319 319 321 323 321 319 317 317 317 318 318 316 316 316 303 301 306 315 310 302 300 302 305 308 311
308 310 311 311 314 316 316 317 318 321 320 320 322 321 324 325 326 327 328 328 326 326 328 330 331 330 329 329 329 327 327 326 326 325 325 324 323 323 320 319 320 321 321 321 320 319 318 319 318 318 318 317 316 317 317 317 316 315 315 317 316 318 319 321 324 323 321 318 318 317 318 318 318 317 315 313 314 308 305 307 308 304 301 300 300 302 304
311 314 315 315 315 317 318 318 319 320 323 321 319 321 322 323 326 326 327 327 329 328 328 328 329 330 329 329 329 327 326 326 326 325 327 327 324 321 320 321 321 321 320 319 318 318 317 316 317 317 315 316 316 317 317 316 316 318 316 317 318 319 322 324 325 324 320 318 318 318 317 318 318 317 315 315 313 315 317 309 307 305 302 300 300 300 300
315 315 318 319 319 319 319 318 319 321 324 325 325 327 331 332 327 327 326 327 328 329 330 329 329 329 330 328 328 327 326 325 329 329 324 323 322 321 319 320 320 320 318 318 318 317 317 317 315 315 316 315 315 316 317 316 316 316 317 318 319 322 323 323 322 321 319 318 318 319 320 319 317 317 318 318 317 317 315 316 317 311 307 304 301 302 302
316 321 319 316 315 315 317 319 317 318 322 325 324 325 328 331 333 326 326 327 327 330 331 331 331 330 330 329 329 327 326 329 328 323 322 322 321 319 319 319 319 320 319 318 317 319 321 321 319 316 315 315 315 316 316 316 316 317 318 320 322 325 324 322 321 321 321 321 321 320 319 319 319 319 319 320 320 318 317 315 315 314 314 314 309 303 307
317 318 317 314 312 313 317 319 318 321 326 326 328 327 326 326 326 327 327 327 328 330 332 332 330 329 328 328 328 328 329 325 321 321 321 319 318 318 318 319 320 320 320 320 320 322 320 317 316 315 314 315 316 316 316 316 316 317 320 320 322 322 321 321 320 320 319 318 318 318 318 319 321 321 321 320 319 318 317 318 315 313 313 313 313 310 306
316 317 319 319 318 317 318 320 321 324 325 328 330 327 325 325 325 326 326 327 329 330 330 330 331 330 329 328 329 326 323 321 321 320 318 318 319 319 320 320 320 321 320 319 317 316 314 312 312 313 315 314 315 316 316 317 317 318 320 321 321 320 320 319 319 319 319 319 319 321 321 321 320 320 321 320 320 318 317 315 315 313 310 311 312 310 311
312 313 317 319 321 320 321 320 320 323 325 327 328 326 326 325 324 324 327 328 329 329 329 330 329 329 329 328 327 324 322 321 320 318 318 319 319 320 320 319 318 317 316 315 314 313 312 311 311 313 314 314 317 317 316 317 318 319 321 322 321 320 319 320 320 319 319 320 322 322 322 321 321 320 320 319 318 317 316 316 314 312 309 310 311 309 308
311 312 318 320 320 319 320 318 317 320 323 325 327 327 326 326 325 326 326 328 328 329 329 329 329 328 328 326 324 323 321 319 318 318 318 319 319 319 319 318 317 315 315 314 313 312 312 311 311 313 313 315 317 317 316 317 318 320 322 322 322 321 321 320 320 319 320 321 321 321 321 321 321 321 320 319 318 317 315 313 312 312 312 310 309 309 308
310 313 318 318 318 318 318 317 317 319 321 324 326 326 326 326 325 325 327 327 328 329 328 328 328 327 324 322 322 321 319 318 318 319 319 319 318 318 317 317 319 319 315 314 314 315 312 312 314 314 314 315 316 316 316 317 319 321 321 322 321 321 321 321 322 322 322 322 322 321 322 320 320 320 320 319 317 316 316 314 313 312 311 310 309 308 309
312 312 313 315 319 317 317 316 317 318 320 324 326 327 327 328 328 328 328 328 328 329 329 328 327 324 322 321 320 319 318 318 318 318 318 317 317 317 317 317 317 315 315 316 315 315 314 314 314 314 314 315 315 315 315 316 318 320 321 321 321 322 322 321 321 321 322 321 320 320 320 320 318 318 318 319 318 318 315 315 314 312 311 310 309 308 308
313 313 314 317 319 318 317 318 318 318 318 322 322 325 326 327 328 328 328 329 329 328 328 327 325 323 322 321 319 318 318 317 316 317 317 317 316 317 318 318 316 315 315 314 313 313 313 313 313 313 314 315 315 316 315 316 317 319 320 320 320 320 320 320 321 322 321 321 321 321 319 320 318 319 318 319 319 318 316 315 314 313 312 311 310 311 306
319 319 320 320 319 319 321 320 319 319 319 321 321 324 326 328 328 328 329 329 328 328 328 327 324 323 322 320 318 318 317 317 317 317 317 317 316 316 315 315 314 314 313 313 313 313 314 313 314 315 314 315 315 316 316 317 318 319 320 321 321 321 321 321 320 320 319 319 320 319 319 318 319 320 319 318 317 316 316 315 315 314 312 312 312 313 310
318 318 319 320 321 322 322 321 321 321 321 321 323 325 327 328 328 329 330 328 329 328 326 325 323 322 320 319 318 318 318 318 318 317 317 317 316 316 315 314 314 313 313 313 313 313 312 314 320 319 316 316 315 316 317 318 318 320 321 321 322 321 322 321 321 321 321 320 320 320 318 319 319 319 319 318 316 316 315 314 313 313 312 312 313 311 310
318 318 319 321 323 323 322 321 321 321 320 321 322 325 327 328 328 328 329 328 326 324 324 323 322 320 318 319 320 320 318 318 318 318 317 316 316 315 314 314 314 313 313 312 314 312 314 318 322 322 319 318 317 318 321 321 318 318 319 319 319 318 317 317 318 317 318 320 320 320 320 317 315 316 318 316 316 315 314 312 313 313 313 313 312 311 311
318 318 319 319 321 323 324 324 325 323 323 324 324 326 327 328 328 328 327 325 323 323 323 321 320 320 320 321 320 318 317 319 318 318 316 315 315 314 314 313 313 314 313 313 314 314 316 320 323 318 315 316 317 319 322 322 320 317 317 318 318 318 318 317 318 319 318 317 319 316 315 315 314 314 315 315 315 316 315 313 314 313 313 313 313 313 312
318 319 320 321 321 321 322 323 324 325 325 324 322 323 326 328 328 328 325 323 323 322 322 321 321 320 318 317 316 317 318 318 318 317 316 315 316 314 313 314 314 314 314 315 316 316 321 321 318 315 316 315 317 319 322 321 319 315 316 316 317 317 318 318 317 318 318 316 316 318 316 316 316 315 315 315 317 318 318 316 315 314 311 311 311 311 311
317 318 319 321 320 320 320 320 321 322 324 326 325 325 326 328 327 326 324 323 323 325 324 322 321 319 318 317 316 316 317 318 318 317 316 316 316 314 314 314 315 314 317 322 318 319 323 322 317 314 315 315 317 318 320 320 318 316 315 315 316 316 317 317 316 316 315 315 316 318 316 315 317 318 318 318 317 316 315 316 315 314 312 312 312 311 313
317 318 320 320 321 321 320 320 320 321 322 324 328 327 328 328 327 326 324 324 324 325 324 323 321 320 319 318 317 318 318 319 318 317 317 316 314 314 313 313 315 315 321 319 318 322 323 319 316 315 314 315 317 320 320 320 315 313 314 314 315 314 315 316 316 316 315 315 316 314 314 315 317 318 317 316 315 314 314 313 313 313 311 311 311 312 312
317 318 320 320 320 320 320 320 321 321 321 322 325 327 327 328 328 327 326 326 325 325 324 323 325 321 320 320 320 319 318 318 318 318 317 317 315 314 313 313 316 317 324 323 324 323 320 318 319 317 315 316 319 321 319 317 312 313 313 314 315 316 316 316 316 315 316 315 312 311 315 313 314 314 315 316 316 315 313 314 313 313 313 312 313 312 313
316 316 318 319 320 320 320 320 320 320 320 321 322 324 326 326 327 327 326 326 325 324 323 323 325 324 323 321 319 317 318 318 318 317 317 317 318 317 315 315 316 320 325 323 321 318 317 317 317 316 320 320 321 322 319 312 312 312 313 314 316 316 316 316 316 315 314 313 310 311 311 311 311 312 313 313 313 313 314 313 313 313 314 314 313 314 314
316 315 316 317 317 319 319 319 320 320 319 320 321 321 323 326 327 327 326 325 324 324 323 322 323 322 322 321 318 317 317 318 317 317 316 315 316 317 316 317 317 323 326 323 320 318 317 318 316 319 323 323 324 322 316 312 312 312 313 313 315 315 316 314 313 313 314 317 318 311 312 314 311 311 312 312 312 312 313 312 312 311 312 312 313 313 313
314 314 315 315 315 316 316 317 319 320 320 320 319 320 320 323 325 327 326 325 324 324 324 323 323 323 322 321 320 319 319 319 319 318 316 315 314 315 317 321 321 324 325 324 320 318 317 317 320 325 324 324 325 322 314 313 312 313 313 314 313 314 314 314 314 316 317 317 315 315 315 313 313 313 312 313 314 313 313 313 314 313 314 314 314 314 315
313 313 313 316 313 313 314 316 319 320 319 319 319 321 322 320 322 324 325 325 324 324 323 324 323 323 323 322 321 320 320 320 320 320 320 319 318 317 319 322 321 325 325 325 320 318 317 324 325 325 325 325 326 323 313 314 315 314 314 313 314 315 315 315 316 316 316 317 317 315 315 314 314 313 312 312 314 315 314 315 315 316 314 314 314 314 314
312 312 311 311 313 314 316 318 321 320 318 318 318 319 321 321 320 321 323 324 324 324 323 323 323 323 323 322 321 319 318 318 318 319 319 321 323 321 322 324 326 328 325 322 321 319 319 324 325 326 325 325 325 321 314 313 313 312 313 313 314 314 315 314 315 315 315 314 315 320 323 319 315 313 315 317 316 317 315 316 317 316 315 316 316 317 318
312 311 311 312 312 313 315 317 318 317 317 317 318 318 319 319 319 320 321 323 324 324 324 323 322 322 322 322 322 322 321 319 316 316 317 319 320 321 321 320 324 327 326 325 324 324 326 328 327 326 326 325 324 320 317 314 313 312 312 313 314 312 313 313 313 313 313 314 316 316 314 314 315 316 315 315 315 316 316 316 316 316 316 315 315 315 316
310 311 312 312 312 313 315 317 317 318 318 319 320 320 321 321 320 321 322 322 323 323 323 323 322 321 322 322 322 322 322 322 321 318 318 319 320 320 320 323 327 328 325 322 322 322 327 327 328 328 328 327 324 320 318 315 315 315 315 314 314 314 315 314 313 313 312 312 313 314 315 315 315 314 314 315 316 316 317 317 316 316 315 316 316 316 316
311 312 310 311 312 313 312 314 316 317 319 321 321 322 322 323 322 322 323 325 325 325 323 322 322 322 321 321 322 322 322 321 320 319 319 320 321 321 321 322 325 328 326 321 321 321 327 329 329 329 328 326 323 321 318 316 314 316 316 318 318 316 316 314 315 316 315 318 315 315 315 315 315 316 318 316 315 315 316 317 316 317 318 318 317 317 317
310 310 309 312 312 314 313 313 316 318 319 321 323 324 324 323 323 324 324 325 325 325 322 322 322 322 321 321 321 321 321 320 319 322 319 320 321 323 323 323 325 327 324 321 320 319 322 324 325 329 329 327 323 322 319 318 316 315 319 317 317 317 316 316 315 315 315 315 315 315 315 315 315 315 316 317 316 316 316 316 316 317 317 318 318 317 317
310 310 310 309 310 312 314 315 316 317 318 320 322 323 324 324 324 324 325 327 326 325 324 321 320 321 322 321 320 319 319 318 320 321 322 321 322 322 323 326 325 326 323 321 319 319 319 322 328 330 330 324 321 321 323 324 321 318 319 321 321 320 321 321 320 316 315 317 318 317 317 317 316 315 316 316 316 316 316 316 317 317 317 318 317 316 316
Wind_Speed
13 5 7 5 2 1 1 3 4 7 10 9 9 7 5 6 3 7 6 5 4 7 8 8 9 9 10 13 14 7 2 4 5 6 6 6 5 4 4 4 3 5 5 5 6 6 6 6 7 6 6 6 6 6 5 5 5 6 6 6 6 6 5 3 4 6 6 5 4 4 4 4 2 4 2 1 0 3 4 4 3 3 3 4 4 4 3
7 5 6 5 7 3 1 1 4 7 8 10 9 6 7 9 3 6 5 3 11 11 10 7 7 4 4 3 1 4 5 6 6 7 7 6 5 5 4 4 3 4 6 6 6 7 7 8 8 7 7 6 6 7 6 5 5 4 4 4 4 5 6 7 6 6 4 3 3 4 5 5 3 4 4 4 4 5 5 4 4 4 5 4 3 3 3
5 6 6 4 4 5 2 2 1 5 7 6 4 1 3 5 2 5 6 4 10 9 4 2 0 2 3 2 3 5 5 6 6 6 6 6 6 6 6 5 6 6 6 6 6 7 7 7 7 7 6 6 6 6 5 5 6 5 5 6 7 7 7 6 6 5 5 5 5 7 6 4 4 5 5 4 4 3 3 3 3 2 1 3 3 3 4
3 1 3 3 2 1 3 1 3 1 6 3 0 1 2 2 5 7 3 3 7 13 3 0 1 5 5 6 4 4 4 4 6 8 8 8 7 7 7 7 7 7 7 7 7 7 7 7 7 7 7 6 6 6 6 6 5 5 7 7 7 7 5 5 5 7 7 7 6 5 4 4 4 4 4 5 5 5 5 6 5 5 6 5 5 5 4
2 2 2 4 4 2 2 2 3 2 4 1 3 2 3 1 2 1 1 10 7 4 1 4 1 3 4 4 3 2 4 4 7 8 8 8 8 8 8 8 7 7 7 7 8 7 7 6 7 6 6 8 7 6 7 5 6 7 8 8 8 7 6 7 6 7 7 7 5 4 3 3 3 4 4 4 3 4 5 4 4 5 5 5 5 4 4
3 2 4 3 1 1 3 3 1 0 1 2 6 5 7 3 5 7 6 9 5 4 4 9 10 7 5 5 1 2 6 8 8 7 7 8 8 7 7 7 8 8 7 7 7 7 8 7 7 7 7 9 7 6 7 7 8 7 8 8 8 7 7 7 7 6 5 5 5 3 3 3 4 4 4 3 3 3 3 4 4 4 4 5 5 5 6
3 1 3 2 2 5 4 3 5 1 2 2 3 1 2 2 5 8 11 10 5 7 6 4 3 7 7 7 8 7 5 7 9 10 9 9 9 9 9 9 8 8 9 9 9 8 7 8 7 8 8 8 8 8 8 8 7 8 8 8 7 7 7 5 4 4 4 4 4 4 4 4 4 4 3 3 4 4 4 5 5 6 6 6 6 6 6
2 3 3 2 3 4 4 8 3 0 3 1 4 2 6 7 7 9 6 6 6 4 3 3 5 11 11 10 9 6 6 4 8 11 10 9 10 10 8 11 9 9 9 9 9 8 6 8 7 8 8 7 10 8 7 8 8 7 7 7 6 5 5 4 3 3 4 5 5 5 5 5 5 5 5 5 5 5 4 4 4 4 4 5 5 6 6
2 2 4 4 3 3 1 1 1 1 1 1 4 4 5 3 2 5 3 1 1 2 4 6 7 8 10 11 8 7 8 8 7 9 9 10 9 10 9 10 10 8 9 10 9 8 9 8 9 8 7 8 9 9 9 8 8 7 7 7 6 5 5 5 5 5 5 5 4 4 3 4 5 4 4 4 4 3 4 4 4 4 5 5 5 5 6
4 3 2 2 1 3 5 6 4 1 3 2 3 2 4 3 4 3 3 3 3 4 4 7 8 6 11 7 3 2 7 10 13 11 11 11 10 10 10 10 10 10 10 10 8 10 10 10 8 7 7 9 9 10 8 7 7 6 6 6 5 5 5 5 4 4 4 4 5 5 5 5 5 4 4 3 4 3 4 5 5 5 5 5 5 6 7
2 4 3 2 3 3 6 4 2 2 1 4 3 2 3 3 3 1 5 4 3 5 8 8 5 5 7 6 4 4 9 9 11 15 11 10 10 10 10 11 12 11 10 11 9 10 11 11 7 7 8 10 10 9 7 7 7 7 7 5 5 5 4 4 4 5 5 6 6 5 5 5 4 5 6 5 5 5 5 5 5 5 7 6 7 6 7
1 5 2 1 3 2 1 5 4 2 2 6 2 1 3 2 2 2 6 6 6 4 3 4 1 2 11 8 8 7 9 10 10 13 14 13 13 12 10 9 10 10 10 12 12 11 11 8 6 7 8 10 10 8 7 7 8 7 5 4 3 4 4 5 5 5 5 5 5 5 6 6 7 6 6 6 7 6 5 4 5 5 7 7 8 8 7
2 4 0 2 3 5 5 3 2 0 3 2 2 3 4 2 3 3 7 7 5 5 3 1 2 1 2 6 9 10 11 14 13 11 11 13 13 13 12 11 10 11 10 11 10 9 7 6 6 7 9 10 9 7 6 8 7 4 3 3 4 4 4 5 6 6 6 6 7 7 6 5 5 5 5 6 7 6 6 6 7 7 8 7 7 7 7
6 4 3 5 4 7 4 3 3 4 3 0 1 3 1 6 4 4 9 9 4 5 4 3 3 3 10 13 12 12 12 13 13 13 14 14 13 12 12 12 12 11 10 11 10 9 7 6 6 7 9 10 7 6 7 7 5 2 3 4 4 5 7 7 7 7 7 6 5 5 5 5 6 6 6 6 5 6 6 6 7 7 7 7 6 7 7
3 3 3 1 1 2 4 0 3 0 0 4 3 3 0 2 7 8 6 7 6 6 5 6 10 12 12 12 13 13 13 14 14 13 14 14 14 13 13 12 9 10 10 9 9 7 6 6 6 7 10 9 7 6 8 4 2 3 4 5 6 6 6 6 6 5 5 6 5 4 6 6 6 7 6 5 6 6 6 6 7 7 7 7 7 7 7
4 3 4 3 5 2 2 3 3 4 5 1 3 4 4 1 4 7 8 4 5 6 11 12 11 14 14 10 12 13 12 13 12 12 13 13 14 12 10 10 9 10 11 8 8 7 6 6 6 6 9 8 6 7 5 3 4 5 5 5 5 6 5 5 5 5 4 5 5 5 6 5 5 5 5 6 6 7 7 7 6 6 6 7 8 8 9
3 3 4 4 3 4 3 4 4 3 4 3 6 3 5 9 6 4 8 8 6 8 9 11 14 12 11 14 11 15 14 13 13 13 12 13 13 12 11 9 8 8 10 10 9 8 6 7 6 6 6 8 6 6 2 4 4 5 4 5 5 5 5 5 5 5 5 5 5 5 6 6 6 6 6 6 6 7 7 6 7 7 7 7 7 8 8
3 3 7 4 4 3 4 3 5 4 3 1 4 3 3 4 3 7 11 9 10 9 9 13 5 12 14 14 12 13 13 13 11 12 13 12 11 11 10 9 9 9 9 9 10 9 7 6 6 6 5 6 7 3 3 4 4 4 4 5 5 5 5 5 5 5 5 4 5 5 6 5 5 5 6 6 6 6 7 7 7 7 7 7 7 8 8
2 2 0 1 3 4 3 5 5 3 4 4 3 2 3 3 2 2 2 12 10 8 3 5 12 12 12 14 12 12 13 13 13 13 12 11 11 11 11 9 10 9 9 9 8 8 8 6 6 6 7 6 5 4 4 4 4 4 4 4 5 5 5 4 4 4 4 2 3 4 4 4 5 5 6 6 6 7 6 6 6 6 7 8 8 9 10
1 2 3 6 6 6 8 6 3 2 3 4 1 2 2 4 4 4 2 2 10 13 14 10 11 12 12 16 14 13 12 12 12 12 12 12 10 8 9 8 8 8 8 9 8 8 7 5 5 5 5 5 4 5 4 4 4 4 4 4 4 4 4 3 3 3 3 7 6 4 3 4 5 5 6 5 6 5 4 4 3 3 4 7 8 8 9
4 4 5 5 5 6 5 1 5 5 3 1 2 5 5 4 8 8 7 3 7 8 12 11 14 13 9 11 15 15 12 12 11 11 11 10 11 10 10 7 7 9 9 9 8 8 6 4 5 5 5 4 5 5 4 3 3 4 3 4 3 3 3 3 2 2 3 4 4 4 4 5 5 5 4 4 4 3 2 2 3 3 3 5 6 7 8
1 2 1 0 0 2 5 5 3 3 1 2 3 4 5 5 9 9 10 7 5 4 11 14 15 16 13 10 13 14 13 12 12 11 11 10 10 9 7 7 8 8 8 9 8 7 5 4 5 5 5 4 4 3 3 2 3 3 3 2 2 2 2 2 2 2 4 4 4 4 5 5 4 4 5 4 1 1 2 2 2 2 2 4 6 6 7
3 5 6 4 1 3 8 7 4 3 1 2 3 6 5 4 5 15 14 8 6 6 4 3 13 15 14 13 13 14 11 11 11 12 14 12 10 9 9 10 8 9 8 7 7 7 5 4 5 4 4 4 4 3 3 2 3 3 3 2 2 2 3 2 2 3 4 4 4 4 4 4 4 4 4 4 2 3 6 5 4 6 8 9 9 7 5
7 8 6 4 2 2 4 5 4 2 2 3 1 4 4 10 14 11 12 11 14 8 7 6 3 11 14 13 15 15 11 11 11 10 8 9 10 9 8 9 10 9 8 7 7 7 5 5 5 4 4 3 3 2 2 2 2 3 3 3 2 2 2 2 1 5 4 5 5 3 4 3 4 4 3 3 4 6 7 6 8 10 10 10 10 10 11
5 4 4 4 5 5 5 4 5 2 2 4 3 2 5 5 3 6 13 9 11 16 12 10 8 6 12 12 12 15 14 11 10 11 11 9 9 9 8 9 9 9 7 6 6 6 6 5 5 4 4 3 2 3 2 2 3 3 3 2 2 2 2 3 4 6 6 5 4 3 3 4 4 3 2 2 3 5 6 6 9 8 10 11 11 11 11
6 8 5 2 3 4 4 1 1 1 0 2 3 2 4 5 5 6 5 9 9 8 13 13 12 9 10 14 11 12 13 12 11 11 10 10 9 8 9 9 8 6 7 7 7 6 5 5 4 3 3 2 3 3 2 3 3 3 3 1 1 1 3 4 5 5 5 5 4 4 4 4 4 2 1 2 3 3 4 5 7 8 8 10 11 12 12
3 3 1 4 4 5 2 1 2 3 0 0 5 6 6 7 8 7 7 5 4 6 10 13 14 12 8 8 12 13 15 11 9 8 8 9 9 8 7 7 8 8 8 7 6 6 6 5 4 4 3 2 2 2 3 3 4 4 3 2 1 6 9 6 5 5 5 4 4 4 4 4 3 2 3 4 4 4 5 5 5 5 5 7 9 9 8
5 3 2 2 3 3 2 2 3 1 2 3 5 8 8 8 9 10 10 9 8 7 8 9 13 14 12 10 12 11 11 12 11 9 8 8 7 7 7 8 8 8 6 6 5 6 5 4 4 4 3 2 3 2 3 3 4 3 2 2 4 5 5 5 5 5 5 5 5 5 5 3 2 3 3 4 4 3 4 5 5 5 5 5 5 6 10
7 8 3 2 7 9 2 1 2 1 3 2 3 5 9 10 8 9 8 8 10 10 9 8 5 7 13 11 10 12 10 11 11 10 9 7 7 8 7 8 8 7 7 6 5 5 4 4 3 4 3 2 2 3 3 4 4 3 2 3 4 5 4 4 4 5 5 5 5 5 4 3 3 3 3 3 3 3 5 5 5 4 5 5 7 8 8
7 7 7 6 6 4 2 1 1 0 2 3 5 3 3 10 9 7 9 9 10 11 9 10 10 9 8 10 10 13 13 12 11 9 9 8 8 8 8 8 8 7 6 5 5 4 5 4 4 3 2 3 2 2 3 3 3 3 3 5 5 5 5 5 5 6 5 5 5 6 4 4 3 3 3 3 3 4 5 5 5 4 6 6 5 6 7
8 7 6 4 4 5 1 2 0 0 1 2 3 5 4 4 8 9 7 7 6 9 10 11 11 11 9 9 8 8 9 10 10 9 9 9 8 7 8 9 9 7 6 6 5 5 5 4 3 3 1 1 3 3 3 3 3 4 5 5 5 8 10 9 6 5 5 5 5 4 4 4 3 3 3 3 3 4 5 4 4 4 4 5 6 6 6
7 8 6 4 2 3 3 2 0 1 1 2 3 5 7 9 9 10 9 8 9 11 12 12 12 12 10 10 12 12 12 11 10 9 9 8 7 7 5 4 5 7 6 6 6 5 5 5 4 2 2 3 3 3 3 4 3 5 5 6 6 5 7 9 6 6 5 5 5 4 4 4 4 3 3 3 3 4 4 4 4 4 4 5 5 5 5
2 4 5 3 1 2 3 2 2 3 4 5 4 1 0 0 6 10 9 10 10 9 11 11 11 11 12 11 10 12 13 12 10 10 8 8 7 6 4 5 6 7 6 6 6 5 5 5 4 3 3 4 4 4 4 4 4 5 5 5 5 6 6 5 5 5 5 5 4 4 4 4 2 3 3 3 3 4 4 4 3 3 4 5 5 5 5
5 6 6 5 4 4 5 6 5 4 2 0 1 2 2 3 5 6 8 8 10 11 12 12 13 14 14 15 15 12 13 12 10 10 9 8 7 6 6 6 6 6 5 5 5 4 4 4 4 4 4 4 4 4 4 4 5 5 4 5 6 5 5 5 5 4 5 5 4 5 4 3 3 3 3 3 3 4 4 4 4 3 4 4 5 5 7
3 6 5 6 5 5 3 4 5 5 5 5 3 3 3 5 5 6 8 12 13 11 10 12 12 12 12 12 13 14 14 13 11 12 10 9 8 8 8 8 6 6 5 4 4 4 4 5 5 5 5 4 5 4 4 5 5 5 5 5 5 5 4 4 4 5 5 4 4 4 4 4 3 3 3 4 4 4 4 3 3 3 4 4 5 5 5
5 5 5 5 4 3 2 3 3 4 5 6 5 5 5 6 7 7 8 6 6 8 10 10 10 10 9 10 9 7 5 7 10 11 11 9 8 8 8 8 7 6 6 4 3 3 4 5 7 8 5 5 5 5 5 5 5 5 5 5 5 6 5 5 5 4 4 4 4 3 2 3 3 2 3 4 4 4 4 4 4 4 4 4 3 4 4
6 6 5 4 4 6 5 2 2 5 4 5 6 6 6 5 6 6 8 11 11 12 11 8 6 6 11 14 14 12 7 6 8 9 9 9 8 8 8 8 7 7 6 6 5 4 4 5 9 10 6 4 5 5 6 8 5 5 5 6 6 6 6 5 5 5 4 3 3 2 2 3 3 3 3 4 4 4 4 4 3 4 4 3 3 3 3
5 7 7 7 6 6 8 8 7 1 6 5 2 3 5 8 8 10 11 12 13 13 13 12 11 8 10 9 4 7 10 8 9 10 10 9 8 8 7 8 6 5 5 6 6 5 5 7 11 6 5 5 5 5 7 10 8 6 6 6 5 5 4 4 4 4 4 3 2 1 1 3 4 4 4 5 4 4 3 2 2 2 3 3 3 3 3
6 7 8 8 7 6 9 10 10 9 4 5 7 5 6 10 11 12 12 12 13 15 13 12 12 13 11 9 7 8 5 4 7 9 8 8 7 8 8 8 7 6 4 4 6 5 6 7 6 6 5 5 6 6 8 11 9 6 6 6 6 5 4 4 4 3 2 1 3 4 3 2 3 4 4 5 4 3 2 2 2 2 2 2 2 3 3
4 5 6 7 8 8 6 9 9 10 10 8 3 10 9 11 10 11 11 12 11 12 11 11 12 11 10 11 12 12 10 5 2 5 8 7 6 5 5 3 3 2 2 7 5 5 8 11 8 5 5 5 6 6 6 8 7 6 6 6 5 5 4 3 3 3 3 3 3 3 3 2 2 3 3 4 4 3 2 1 1 1 2 2 2 2 2
3 3 5 6 6 6 7 5 9 8 9 10 6 2 7 10 10 11 11 12 11 11 13 13 12 13 14 14 14 13 12 12 12 10 8 7 6 5 6 6 5 5 6 5 5 6 8 7 6 6 5 5 6 6 6 9 7 5 5 5 5 4 4 3 3 3 3 3 2 2 1 1 3 4 4 3 4 3 2 2 0 1 1 2 2 2 1
4 4 3 5 6 5 6 8 3 9 9 9 10 4 1 4 9 12 11 10 11 10 11 11 14 15 12 11 9 9 10 11 11 11 12 11 10 8 6 6 6 6 10 10 8 7 6 6 5 5 6 6 6 9 7 6 6 6 5 4 4 4 3 2 2 2 1 1 0 1 2 3 3 3 3 3 3 2 2 1 1 2 2 1 2 1 1
5 6 5 5 5 5 4 7 4 7 9 4 9 6 3 3 2 6 9 9 10 10 9 8 9 9 9 10 11 11 10 10 11 10 8 5 5 4 6 9 8 8 16 8 6 6 6 6 6 5 6 6 6 12 9 6 5 5 5 4 3 2 2 1 1 1 2 2 3 3 3 3 3 3 3 3 3 2 2 2 2 2 2 2 2 2 2
4 5 4 4 5 3 2 4 4 5 7 5 3 8 2 4 3 6 7 8 9 9 10 10 10 10 11 11 12 11 10 10 10 9 9 6 4 2 3 8 8 12 18 8 6 6 6 6 5 7 12 11 12 11 6 5 5 5 4 4 3 2 1 0 1 2 2 1 2 3 3 3 3 3 3 3 3 3 2 2 3 3 3 3 3 2 2
4 4 4 5 4 3 3 3 4 6 4 3 3 5 3 4 4 4 5 6 7 8 8 9 10 11 11 12 12 13 12 12 12 12 10 8 7 6 5 9 10 10 12 12 6 6 6 6 8 12 10 12 12 11 5 5 4 4 4 3 3 2 1 1 1 0 0 0 1 2 2 2 2 2 2 1 1 2 3 3 3 3 3 3 3 3 2
4 4 4 4 3 2 2 2 2 2 5 5 1 2 2 1 3 3 4 5 6 7 8 8 9 11 11 10 7 8 9 8 8 10 9 11 12 10 10 11 9 9 16 17 7 7 6 11 13 13 13 13 12 7 5 4 4 3 3 3 3 2 2 2 2 2 1 2 2 2 3 3 3 3 3 3 3 3 3 3 3 3 3 3 3 3 2
2 2 2 1 0 1 2 3 3 5 6 5 4 3 4 2 1 3 4 4 4 5 5 5 5 5 6 9 11 10 9 8 6 5 3 2 3 7 14 16 14 18 16 10 7 7 7 9 12 14 14 14 12 6 6 4 4 4 4 3 3 3 3 3 3 3 2 2 2 2 2 3 3 3 3 3 3 4 4 4 4 5 4 4 3 3 3
2 2 1 2 3 4 5 5 6 6 5 4 2 3 3 3 2 2 3 3 4 4 5 5 5 5 6 7 7 9 11 12 10 7 4 5 5 8 10 10 10 16 16 11 12 9 15 14 15 15 14 14 8 6 6 5 5 4 4 4 4 4 3 3 3 3 2 2 2 2 3 3 3 4 4 4 4 4 5 5 5 5 4 4 4 4 3
2 2 2 1 2 3 4 3 3 2 1 3 2 1 1 2 2 1 2 3 4 5 5 5 6 6 6 7 6 5 4 6 7 9 9 7 8 9 9 11 17 19 12 9 9 7 13 15 14 13 14 12 6 6 5 5 5 5 5 5 4 4 4 4 4 3 3 3 3 3 3 4 4 4 4 5 5 5 5 5 6 5 5 5 4 3 3
3 3 4 4 4 3 3 3 3 2 3 3 2 2 1 1 0 1 2 2 3 4 4 5 5 5 6 6 5 4 5 6 4 6 7 8 9 9 9 10 10 13 13 9 9 7 11 17 14 13 10 6 6 6 5 5 5 5 5 5 4 5 5 5 3 4 4 4 4 4 5 5 5 5 5 5 5 4 5 5 5 4 6 5 4 4 3
3 4 4 3 3 3 1 1 1 2 3 3 3 3 2 2 3 3 3 4 4 5 5 4 5 4 5 5 5 5 6 5 4 7 8 7 8 9 10 10 10 10 10 10 9 8 7 7 7 8 8 7 6 6 5 6 6 6 5 5 6 5 5 5 5 5 5 5 5 5 5 5 5 5 5 5 5 5 5 4 4 5 5 5 5 4 4
1 0 2 2 3 3 3 3 2 2 3 3 3 3 2 3 3 4 4 5 5 5 5 5 6 5 6 6 5 6 5 5 5 7 8 8 8 8 10 13 9 10 10 9 8 7 7 6 6 7 7 7 6 6 6 8 6 5 5 5 4 5 5 5 5 5 6 5 5 5 6 5 4 5 5 5 5 5 5 5 5 5 5 5 4 4 4
Wind_Direction
234 210 220 239 251 191 192 200 153 161 163 159 166 198 184 140 188 213 258 162 208 256 261 250 217 205 201 202 207 204 167 95 107 122 125 135 137 128 135 145 132 132 131 117 111 104 104 104 100 100 99 93 90 83 87 99 111 128 141 143 153 163 160 125 67 54 41 32 43 30 28 25 76 123 136 165 51 35 42 36 26 20 24 34 23 13 353
243 243 230 241 253 275 73 327 183 171 165 173 168 185 170 170 191 217 263 191 244 249 252 240 224 218 268 290 115 113 139 154 136 129 138 135 126 121 113 99 95 103 111 113 112 114 113 115 115 113 111 112 117 121 121 122 114 91 93 100 105 80 65 60 57 57 60 61 43 51 57 63 40 67 67 49 39 35 29 23 16 14 25 18 17 338 318
268 251 263 272 224 159 175 223 242 196 178 151 152 145 88 76 348 285 255 272 277 264 223 224 214 109 72 59 137 166 154 145 147 131 117 106 102 102 103 103 103 104 106 111 113 112 120 120 122 115 108 109 105 99 96 87 75 57 68 78 74 81 85 90 108 114 98 74 62 55 64 63 28 36 44 46 54 54 36 21 20 359 4 323 322 322 323
291 282 201 256 80 116 138 357 10 32 150 125 301 144 213 137 253 286 27 306 272 265 229 268 139 132 158 184 176 141 141 139 128 122 120 120 121 121 120 119 119 115 113 111 106 104 99 97 98 107 109 106 99 90 78 66 58 63 75 78 82 81 83 90 89 92 89 76 70 65 63 61 56 52 42 35 25 12 1 357 346 355 347 342 341 332 317
259 270 88 88 16 0 30 324 292 262 292 273 120 336 25 202 146 106 153 238 233 315 150 150 238 177 157 136 141 101 87 109 127 130 128 127 125 124 127 123 114 105 101 100 104 102 95 91 95 89 105 100 90 86 77 67 73 72 72 74 78 74 72 74 69 70 82 89 90 77 68 67 55 55 57 45 23 357 340 327 340 340 327 325 311 303 288
246 332 29 59 65 189 228 233 197 119 29 331 147 200 226 234 140 202 202 238 285 294 214 199 198 179 183 165 173 124 143 133 120 114 118 119 116 108 100 100 103 101 98 94 87 90 94 89 85 90 86 95 91 85 86 77 77 78 83 76 79 79 73 69 65 65 72 83 90 98 74 58 56 52 42 22 339 319 315 323 309 299 298 296 302 302 301
178 56 60 108 214 234 241 286 277 205 171 144 210 147 152 247 266 278 277 268 263 238 249 289 114 115 98 82 92 90 117 128 127 129 126 122 121 117 114 106 103 104 106 102 98 88 83 91 93 90 80 87 94 83 85 86 84 88 83 84 78 78 77 71 76 83 100 101 88 56 39 40 41 39 24 2 351 340 332 325 323 318 315 311 295 286 280
47 65 65 127 232 237 285 282 267 97 102 109 127 240 213 201 223 222 234 256 252 226 199 135 131 114 109 81 53 60 71 83 127 133 129 127 125 122 123 117 112 113 109 107 104 99 98 96 89 88 95 95 90 87 81 85 83 81 86 84 84 83 83 88 93 88 86 73 55 42 36 30 30 15 3 353 331 316 306 288 278 278 278 273 280 285 283
166 184 143 204 298 350 350 16 85 150 193 201 152 194 267 220 206 190 227 248 128 125 137 145 143 130 101 77 41 33 85 88 78 102 114 122 116 110 104 104 101 97 100 102 106 105 99 97 97 95 98 93 91 86 78 73 77 74 76 75 70 70 66 47 46 46 57 68 65 57 48 36 20 0 343 322 306 292 299 299 301 300 299 295 295 291 296
112 132 48 11 50 176 271 241 273 294 190 176 180 101 291 300 281 207 173 162 153 133 143 152 168 147 87 71 39 16 96 105 107 99 102 99 98 99 102 99 99 102 102 100 96 102 101 88 86 95 94 95 90 84 82 77 80 75 73 68 63 67 63 58 68 78 81 73 56 39 32 26 3 340 319 299 312 331 334 331 327 321 316 308 309 308 306
64 49 118 197 148 244 209 251 251 271 193 176 134 61 300 263 245 261 156 142 158 159 156 174 202 155 136 170 192 164 132 126 123 112 104 103 103 103 105 110 109 105 103 105 105 96 92 86 80 88 92 90 87 83 77 76 75 72 66 65 68 77 72 66 59 48 40 43 38 29 22 7 353 351 347 341 342 348 342 337 322 317 322 322 316 316 314
138 136 104 214 204 151 221 229 268 252 129 110 81 38 285 251 254 207 136 148 158 161 172 161 350 191 153 178 196 165 143 126 111 117 120 112 107 104 100 90 100 104 105 97 85 84 86 91 96 93 92 84 81 79 71 71 70 67 63 66 76 68 58 48 45 40 33 33 28 25 11 3 358 352 350 353 349 341 331 327 324 320 325 324 324 330 341
153 119 332 333 303 271 259 246 251 157 126 119 84 172 240 237 190 176 129 133 149 138 132 107 125 272 212 119 120 122 116 102 98 96 100 107 112 113 108 104 98 86 79 81 84 84 85 85 82 82 84 84 82 86 84 77 68 58 51 66 60 65 56 49 40 33 28 25 17 11 9 358 347 351 356 351 344 340 334 333 334 336 342 344 352 353 348
164 185 138 211 237 240 211 256 164 174 121 88 202 236 209 136 150 174 134 132 137 122 146 163 136 105 102 107 112 110 104 108 113 111 109 104 94 92 94 93 90 88 84 82 79 68 65 79 83 86 90 89 90 90 81 69 54 16 60 59 60 50 45 37 32 27 20 13 18 7 357 2 1 359 354 345 345 340 341 346 352 0 5 1 352 345 342
63 53 90 32 199 266 160 190 64 2 200 232 209 179 281 154 152 143 136 136 158 144 127 136 122 109 104 111 113 111 114 114 115 114 112 110 110 105 98 89 86 96 93 85 77 77 66 71 80 91 92 89 86 79 72 53 3 48 47 46 45 46 43 34 27 23 15 15 9 2 7 10 16 10 355 351 2 7 13 14 15 11 1 357 348 342 338
150 142 152 194 211 220 223 139 192 219 208 212 185 155 120 258 164 149 132 141 161 162 140 137 126 121 115 107 117 114 111 108 105 107 107 105 98 91 83 92 105 104 98 90 86 68 65 63 68 80 93 92 87 81 63 345 34 41 43 41 48 45 37 28 23 17 9 7 11 14 21 23 29 19 12 22 26 23 26 23 16 9 357 355 348 346 341
140 192 216 243 244 215 241 195 219 228 252 201 188 169 175 157 197 195 138 152 152 153 137 129 129 119 125 128 131 122 121 117 118 117 113 108 108 108 108 106 102 97 104 102 92 70 55 58 60 68 84 98 89 81 18 33 36 40 36 39 45 39 28 21 19 5 0 14 25 32 33 33 36 26 26 30 33 23 22 19 14 8 359 355 352 344 342
270 259 214 271 301 283 281 252 231 250 290 271 160 171 167 254 198 177 156 158 150 146 144 128 121 128 135 125 121 116 116 114 110 106 101 97 98 103 106 103 99 100 96 92 94 88 61 53 66 63 62 87 94 89 34 38 31 43 42 41 39 30 24 18 12 3 1 14 51 50 43 40 51 44 38 33 39 28 24 21 16 12 3 1 358 353 351
77 216 331 284 275 313 310 309 295 242 237 252 181 204 194 205 188 297 166 144 138 119 69 94 127 128 125 118 118 117 116 117 118 117 115 115 120 123 117 119 114 106 108 103 102 97 84 53 69 69 75 68 83 81 52 26 33 30 42 43 40 27 19 5 358 360 346 61 71 61 50 52 50 48 43 41 40 37 33 25 22 23 21 20 14 9 2
177 256 276 281 278 258 269 266 291 322 330 336 80 166 192 154 110 88 68 120 136 144 137 149 134 128 133 131 132 128 125 124 125 124 123 122 110 103 112 118 114 111 109 112 109 100 93 78 75 78 74 73 63 57 44 36 27 46 40 43 44 16 9 352 337 336 359 72 88 79 55 46 46 47 49 47 49 43 33 25 20 11 16 20 17 8 2
278 305 292 302 320 327 311 233 243 246 247 277 31 103 126 135 106 95 79 83 151 140 134 146 132 125 132 135 133 128 127 125 127 128 125 122 122 125 123 127 121 118 119 111 110 106 106 104 96 84 77 63 51 46 39 35 38 52 47 41 45 13 351 342 331 349 57 97 105 104 81 67 57 50 40 39 43 33 348 319 356 14 8 0 0 358 350
329 182 229 108 79 289 303 330 10 331 265 122 116 108 106 124 112 97 92 70 46 115 146 145 135 133 135 137 129 127 130 132 129 125 122 123 123 118 113 105 108 109 109 117 120 116 119 113 100 93 75 58 39 36 32 38 51 62 39 41 42 10 324 328 311 19 86 113 125 100 93 87 72 63 48 57 0 330 338 352 321 304 311 348 334 341 346
275 267 248 209 161 226 245 262 299 302 288 106 139 111 113 82 100 116 108 94 85 83 53 90 134 136 138 140 132 127 131 135 137 136 134 132 129 125 124 114 107 111 119 120 117 114 128 121 109 104 83 49 33 18 25 30 73 86 62 44 30 353 350 328 313 90 112 115 91 92 95 84 68 63 34 12 315 274 267 301 330 342 358 0 3 7 14
265 260 267 188 166 277 289 318 310 275 252 119 100 104 150 151 149 137 131 173 145 133 119 95 107 139 135 139 135 129 125 127 127 124 119 121 126 127 122 122 125 125 129 130 132 137 137 124 113 101 78 45 13 348 11 29 68 89 76 61 22 353 328 301 4 102 105 107 108 105 92 69 62 58 41 12 336 309 312 342 1 17 24 22 23 30 37
270 304 327 236 220 259 278 264 273 277 228 137 128 138 143 148 135 136 146 166 145 141 139 134 127 146 138 135 133 133 135 136 132 130 128 123 124 120 122 123 132 138 139 137 132 131 128 123 116 96 79 20 350 357 6 24 55 64 61 48 19 351 57 62 95 119 113 114 116 107 98 79 71 60 42 9 325 345 344 13 34 35 28 24 18 18 25
252 282 282 258 240 246 262 295 302 28 339 130 105 87 102 115 126 109 136 147 150 149 137 136 135 145 147 137 133 127 125 132 138 129 123 123 120 116 128 138 137 120 122 130 132 129 126 126 119 101 74 352 341 356 18 45 63 66 49 14 323 257 96 97 94 100 108 116 118 104 86 84 99 84 17 310 339 348 15 15 12 6 8 9 16 14 5
282 244 26 310 306 312 350 38 270 304 327 327 127 126 112 105 105 104 97 82 106 136 143 144 140 137 122 122 129 135 134 133 120 114 117 121 126 133 134 127 127 127 126 122 126 141 136 129 113 99 58 351 327 7 43 54 59 49 23 19 18 113 99 91 88 101 109 115 105 89 86 75 68 47 2 355 5 13 24 35 17 3 350 347 355 6 5
287 286 132 222 257 251 283 267 232 261 92 129 138 126 126 116 114 113 109 107 104 101 104 128 136 134 128 136 133 126 123 123 121 119 114 116 117 122 126 124 123 123 122 127 131 135 122 117 111 91 42 333 347 17 55 63 67 46 36 65 84 85 83 86 81 86 88 94 96 96 105 107 86 41 27 13 7 9 33 37 29 6 358 352 328 330 358
339 341 329 243 268 271 244 44 85 65 72 61 91 117 130 124 126 122 126 127 128 122 118 110 96 122 135 141 137 130 125 120 122 127 125 122 122 121 118 114 114 113 118 121 109 112 107 105 109 93 32 336 356 39 64 82 76 67 86 106 98 92 90 87 91 94 98 101 104 105 95 75 52 40 22 4 11 32 42 39 29 17 9 347 358 3 3
328 330 331 334 339 285 147 108 192 232 74 90 122 122 139 134 129 135 136 142 141 135 135 126 127 132 139 133 135 137 141 141 131 120 122 124 122 120 116 111 102 96 103 117 125 130 124 130 119 91 32 336 22 74 95 89 87 100 99 102 98 103 105 100 98 100 102 101 104 100 82 78 64 43 17 359 18 36 48 41 34 20 14 8 13 16 1
307 306 311 336 351 322 291 243 272 300 75 59 83 105 80 97 123 129 139 137 131 133 144 143 138 131 129 124 115 101 96 98 106 113 113 116 121 127 136 138 138 154 158 156 155 145 132 126 115 92 343 46 88 93 96 97 101 98 101 99 98 108 111 108 104 106 108 105 100 90 83 71 47 28 17 6 18 44 49 46 35 22 20 12 20 10 357
297 309 328 352 14 316 321 351 94 190 113 67 109 145 153 142 151 153 153 158 159 151 141 138 141 138 130 124 119 114 112 115 119 121 124 125 130 141 152 147 137 139 140 149 151 144 135 124 110 135 107 92 96 92 99 103 97 106 110 116 111 107 111 115 114 118 114 106 101 98 91 74 40 20 5 15 36 53 48 53 41 29 16 26 20 10 349
257 329 332 322 322 319 306 300 207 217 181 187 207 202 243 222 157 158 156 144 136 147 146 143 137 129 125 120 124 129 130 127 122 120 128 137 135 134 132 125 121 131 144 153 150 148 137 131 140 131 105 107 93 89 97 101 101 113 118 110 106 116 122 120 114 114 104 95 90 83 75 68 54 31 6 27 56 67 61 55 39 30 32 32 27 10 10
206 212 223 217 185 210 219 238 216 211 203 84 89 123 128 130 144 137 140 143 144 148 151 149 143 144 144 146 142 137 129 125 142 151 150 144 139 133 130 123 126 132 136 131 124 119 119 130 130 120 122 105 99 99 100 103 110 111 108 106 113 112 115 119 120 110 98 85 78 76 65 55 37 44 39 33 53 68 62 45 46 38 34 32 22 19 19
262 277 292 291 282 258 265 279 250 206 172 169 146 143 145 140 150 155 152 154 160 159 151 145 149 150 147 140 136 147 152 158 158 143 142 143 147 138 131 121 121 117 115 123 132 135 145 136 131 128 115 105 106 105 107 112 113 107 100 105 107 106 110 103 97 96 103 104 93 81 63 56 40 56 61 71 62 57 59 56 43 37 40 31 19 20 27
30 15 357 345 347 323 246 212 212 204 184 180 172 163 158 155 146 149 157 148 122 121 130 137 140 133 121 116 109 104 130 144 141 137 138 146 145 139 131 128 135 134 141 148 188 172 150 147 146 133 127 121 110 109 106 107 95 104 110 106 109 109 101 97 94 87 91 95 91 84 65 67 62 67 71 73 69 62 66 58 47 36 43 33 30 23 17
36 39 14 352 3 40 11 327 197 160 155 154 158 154 142 129 117 90 76 74 69 61 50 45 48 99 127 131 146 161 154 139 135 135 140 139 140 137 133 134 137 153 158 158 188 190 163 157 143 130 123 113 117 115 120 110 91 93 94 97 108 111 113 108 105 99 85 62 60 36 50 70 62 61 66 75 71 68 64 55 49 43 36 35 28 22 15
33 43 33 18 347 34 44 16 341 212 131 118 127 130 122 113 110 106 105 103 102 97 87 80 77 43 7 350 5 106 121 133 134 137 135 140 145 135 137 145 157 161 178 185 176 165 180 149 131 119 125 117 119 120 122 118 112 108 104 109 107 114 112 105 100 82 70 40 23 23 33 62 68 68 65 72 73 74 65 68 55 47 26 18 9 16 13
22 33 39 30 9 13 56 41 30 2 347 141 129 111 127 125 121 119 120 125 124 123 142 162 151 138 136 112 69 19 27 99 142 135 134 141 153 154 167 174 177 174 179 161 153 162 144 130 119 126 124 127 123 117 122 119 113 111 114 115 118 118 111 104 99 96 86 28 14 24 31 54 81 93 104 111 103 80 84 82 64 45 28 13 10 16 6
24 34 46 37 30 354 16 61 42 25 355 334 149 141 147 133 132 129 132 136 150 152 141 137 141 141 144 141 137 141 147 145 140 142 140 144 141 123 108 100 153 157 152 157 151 148 140 134 127 129 134 138 128 122 124 126 122 123 127 128 126 114 110 102 98 71 42 32 25 19 23 54 102 129 133 144 134 139 123 53 70 43 11 353 358 350 352
43 29 35 49 45 18 337 18 65 46 17 349 335 133 145 138 135 134 144 150 155 155 154 155 151 156 158 159 162 162 161 156 152 157 155 145 146 158 158 174 184 174 166 154 162 155 140 133 139 136 150 142 134 133 131 130 125 126 128 128 121 116 102 92 70 48 18 9 357 31 17 78 120 135 143 139 152 158 161 168 241 247 273 302 311 311 288
16 22 47 63 60 36 347 310 35 70 36 359 338 345 69 139 149 153 155 152 155 160 161 168 166 163 162 154 145 144 146 151 153 156 166 171 169 165 167 187 171 166 165 160 165 145 136 139 146 149 154 145 139 140 137 131 131 132 128 128 127 125 110 86 29 6 13 35 93 132 122 102 124 146 140 139 139 158 176 202 265 271 273 256 270 260 260
24 35 30 35 60 64 344 306 325 89 93 28 322 327 23 43 70 129 143 154 157 159 162 161 161 136 128 140 142 148 158 159 160 160 167 185 172 195 180 165 161 170 166 158 151 137 147 143 150 165 159 145 145 147 137 128 131 135 137 143 121 105 81 84 352 340 20 61 98 103 103 103 131 157 149 150 158 158 172 202 225 258 269 261 261 269 270
30 37 30 43 30 29 34 311 336 38 71 92 6 316 352 86 115 149 160 160 160 164 161 162 160 155 154 151 152 158 164 167 162 164 162 158 169 216 158 158 159 167 166 154 149 147 152 150 160 169 160 153 151 143 133 138 140 146 153 144 127 119 107 67 9 20 24 53 98 117 124 129 142 163 156 161 174 179 191 210 226 233 252 255 255 258 271
41 29 28 27 21 26 356 342 4 25 40 51 27 301 301 125 136 163 165 167 171 172 172 170 169 166 166 169 169 171 169 170 169 165 164 171 175 204 183 165 163 165 164 160 151 152 154 157 174 171 163 162 159 148 143 152 163 162 165 159 162 164 192 212 248 222 330 117 140 147 151 142 147 148 158 183 204 204 216 217 231 230 233 248 253 259 267
27 20 6 27 32 346 297 293 310 56 58 56 359 318 8 82 141 162 184 181 181 189 192 186 180 179 176 170 158 149 153 163 178 185 184 178 181 173 167 167 169 167 165 162 146 156 164 175 177 174 170 172 169 152 158 173 175 173 173 183 197 203 217 224 210 223 203 195 180 179 172 171 177 179 178 189 200 214 242 238 253 250 234 236 245 244 252
27 13 1 320 275 297 343 356 18 40 48 49 33 344 336 10 186 203 206 204 197 187 183 191 192 186 175 170 160 153 156 161 175 192 157 104 83 135 163 166 168 168 164 162 163 163 168 178 180 181 177 181 176 151 166 173 180 191 196 215 202 230 215 234 234 234 225 236 236 232 216 186 180 192 205 212 210 209 215 222 237 242 237 228 232 240 244
4 14 331 344 25 18 25 32 40 40 24 6 321 310 316 330 313 262 228 200 188 183 182 182 181 177 178 184 188 179 168 160 164 198 196 160 150 156 158 168 172 170 164 159 163 170 178 181 180 183 183 189 181 158 171 171 183 195 210 215 214 222 234 250 246 248 253 259 265 267 276 255 233 218 213 214 224 219 215 211 225 238 241 228 234 230 240
26 17 333 0 61 65 60 56 58 43 343 284 289 253 296 320 334 308 230 205 195 197 196 185 182 181 182 188 185 184 184 188 174 176 172 157 161 165 167 166 171 169 161 161 166 170 184 183 183 181 183 190 168 171 176 181 190 202 212 214 218 215 222 224 240 223 239 237 237 228 244 238 236 220 226 218 215 210 211 221 222 218 230 232 230 221 218
1 28 28 21 25 45 64 55 27 333 299 301 286 267 249 168 231 257 236 227 208 197 196 193 186 180 174 174 178 171 169 163 96 97 141 154 157 161 163 168 172 168 162 161 165 173 187 185 187 184 181 168 161 171 179 194 204 212 219 218 223 222 224 222 232 232 232 239 238 235 240 240 241 237 229 226 226 216 207 208 216 226 227 229 225 228 209
26 22 358 339 325 310 255 216 237 267 296 293 292 289 266 219 221 220 210 221 222 210 189 179 184 173 165 164 157 157 158 148 131 141 143 154 157 164 166 168 172 170 164 164 169 173 182 183 183 186 179 167 169 177 178 196 203 216 220 221 225 228 227 227 224 237 240 237 243 250 250 253 242 246 235 230 225 229 214 203 202 210 205 212 212 216 204
132 248 274 288 288 291 286 276 259 233 234 260 269 256 243 232 235 229 227 230 219 209 181 158 181 186 178 174 158 156 154 151 151 152 155 155 160 165 169 168 171 169 167 169 170 170 179 185 181 175 166 166 171 178 197 203 208 210 219 226 230 231 230 226 218 221 235 240 236 243 247 245 232 236 235 227 219 217 214 212 210 207 203 204 195 192 188